| time (UTC) | temp C | wind direction | speed KPH | gust KPH | rain 1hr cm | rain 24hr cm | rain mn cm | humidity % | barometer mb |
| 20260502190503 | 15 | 310 | 3.2 | 3.2 | 0.00 | 0.00 | 0.00 | 25 | 1017.3 |
| 20260502190006 | 13 | 310 | 3.2 | 3.2 | 0.00 | 0.00 | 0.00 | 28 | 1018.3 |
| 20260502185503 | 13 | 310 | 3.2 | 3.2 | 0.00 | 0.00 | 0.00 | 28 | 1018.3 |
| 20260502185003 | 13 | 310 | 3.2 | 3.2 | 0.00 | 0.00 | 0.00 | 28 | 1018.3 |
| 20260502184504 | 13 | 310 | 3.2 | 3.2 | 0.00 | 0.00 | 0.00 | 28 | 1018.3 |
| 20260502183503 | 13 | 310 | 3.2 | 3.2 | 0.00 | 0.00 | 0.00 | 28 | 1018.3 |
| 20260502183003 | 13 | 310 | 3.2 | 3.2 | 0.00 | 0.00 | 0.00 | 28 | 1018.3 |
| 20260502182503 | 13 | 310 | 3.2 | 3.2 | 0.00 | 0.00 | 0.00 | 28 | 1018.3 |
| 20260502181504 | 13 | 310 | 3.2 | 3.2 | 0.00 | 0.00 | 0.00 | 28 | 1018.3 |
| 20260502180503 | 13 | 310 | 3.2 | 3.2 | 0.00 | 0.00 | 0.00 | 28 | 1018.3 |
| 20260502170503 | 13 | 310 | 3.2 | 3.2 | 0.00 | 0.00 | 0.00 | 29 | 1019.0 |
| 20260502162503 | 11 | 310 | 3.2 | 3.2 | 0.00 | 0.00 | 0.00 | 32 | 1019.6 |
| 20260502161503 | 11 | 310 | 3.2 | 3.2 | 0.00 | 0.00 | 0.00 | 32 | 1019.6 |
| 20260502161004 | 11 | 310 | 3.2 | 3.2 | 0.00 | 0.00 | 0.00 | 32 | 1019.6 |
| 20260502160504 | 11 | 310 | 3.2 | 3.2 | 0.00 | 0.00 | 0.00 | 32 | 1019.6 |
| 20260502151004 | 10 | 310 | 3.2 | 3.2 | 0.00 | 0.00 | 0.00 | 37 | 1020.0 |
| 20260502150503 | 10 | 310 | 3.2 | 3.2 | 0.00 | 0.00 | 0.00 | 37 | 1020.0 |
| 20260502130503 | 6 | 310 | 3.2 | 3.2 | 0.00 | 0.00 | 0.00 | 55 | 1020.0 |
| 20260502123504 | 0 | 309 | 1.6 | 3.2 | 0.00 | 0.00 | 0.00 | 75 | 1019.6 |
| 20260502123004 | 0 | 327 | 1.6 | 1.6 | 0.00 | 0.00 | 0.00 | 75 | 1019.6 |
| 20260502122003 | 0 | 307 | 1.6 | 1.6 | 0.00 | 0.00 | 0.00 | 75 | 1019.6 |
| 20260502121503 | 0 | 311 | 1.6 | 1.6 | 0.00 | 0.00 | 0.00 | 75 | 1019.6 |
| 20260502121003 | 0 | 304 | 1.6 | 1.6 | 0.00 | 0.00 | 0.00 | 75 | 1019.6 |
| 20260502120503 | 0 | 348 | 0.0 | 1.6 | 0.00 | 0.00 | 0.00 | 75 | 1019.6 |
| 20260502115503 | 0 | 270 | 0.0 | 1.6 | 0.00 | 0.00 | 0.00 | 75 | 1019.6 |
| 20260502115003 | 0 | 283 | 0.0 | 1.6 | 0.00 | 0.00 | 0.00 | 75 | 1019.6 |
| 20260502114504 | 0 | 324 | 0.0 | 1.6 | 0.00 | 0.00 | 0.00 | 75 | 1019.6 |
| 20260502114004 | 0 | 323 | 0.0 | 1.6 | 0.00 | 0.00 | 0.00 | 75 | 1019.6 |
| 20260502113503 | 0 | 332 | 0.0 | 1.6 | 0.00 | 0.00 | 0.00 | 75 | 1019.6 |
| 20260502113003 | 0 | 299 | 0.0 | 1.6 | 0.00 | 0.00 | 0.00 | 75 | 1019.6 |
| 20260502112503 | 0 | 335 | 0.0 | 1.6 | 0.00 | 0.00 | 0.00 | 75 | 1019.6 |
| 20260502112003 | 0 | 323 | 0.0 | 1.6 | 0.00 | 0.00 | 0.00 | 75 | 1019.6 |
| 20260502111503 | 0 | 269 | 0.0 | 1.6 | 0.00 | 0.00 | 0.00 | 75 | 1019.6 |
| 20260502110003 | 0 | 295 | 0.0 | 1.6 | 0.00 | 0.00 | 0.00 | 75 | 1019.3 |
| 20260502105503 | 0 | 315 | 0.0 | 1.6 | 0.00 | 0.00 | 0.00 | 75 | 1019.3 |
| 20260502105003 | 0 | 315 | 1.6 | 1.6 | 0.00 | 0.00 | 0.00 | 75 | 1019.3 |
| 20260502104502 | 0 | 330 | 0.0 | 1.6 | 0.00 | 0.00 | 0.00 | 75 | 1019.3 |
| 20260502104003 | 0 | 283 | 0.0 | 1.6 | 0.00 | 0.00 | 0.00 | 75 | 1019.3 |
| 20260502103503 | 0 | 317 | 0.0 | 1.6 | 0.00 | 0.00 | 0.00 | 75 | 1019.3 |
| 20260502102003 | 0 | 293 | 0.0 | 1.6 | 0.00 | 0.00 | 0.00 | 75 | 1019.3 |
| 20260502101502 | 0 | 311 | 0.0 | 1.6 | 0.00 | 0.00 | 0.00 | 75 | 1019.3 |
| 20260502101003 | 0 | 312 | 0.0 | 0.0 | 0.00 | 0.00 | 0.00 | 75 | 1019.3 |
| 20260502100503 | 0 | 282 | 0.0 | 0.0 | 0.00 | 0.00 | 0.00 | 75 | 1019.3 |
| 20260502091503 | -1 | 175 | 1.6 | 1.6 | 0.00 | 0.00 | 0.00 | 81 | 1019.3 |
| 20260502091002 | -1 | 222 | 0.0 | 1.6 | 0.00 | 0.00 | 0.00 | 81 | 1019.3 |
| 20260502071503 | 1 | 142 | 0.0 | 0.0 | 0.00 | 0.00 | 0.00 | 69 | 1019.6 |
| 20260502070503 | 1 | 208 | 0.0 | 1.6 | 0.00 | 0.00 | 0.00 | 69 | 1019.6 |
| 20260502070003 | 1 | 192 | 0.0 | 1.6 | 0.00 | 0.00 | 0.00 | 66 | 1019.6 |
| 20260502065503 | 1 | 311 | 1.6 | 1.6 | 0.00 | 0.00 | 0.00 | 66 | 1019.6 |
| 20260502065003 | 1 | 307 | 0.0 | 1.6 | 0.00 | 0.00 | 0.00 | 66 | 1019.6 |
| 20260502064503 | 1 | 312 | 0.0 | 1.6 | 0.00 | 0.00 | 0.00 | 66 | 1019.6 |
| 20260502064003 | 1 | 301 | 0.0 | 0.0 | 0.00 | 0.00 | 0.00 | 66 | 1019.6 |
| 20260502063503 | 1 | 254 | 0.0 | 1.6 | 0.00 | 0.00 | 0.00 | 66 | 1019.6 |
| 20260502062504 | 1 | 168 | 0.0 | 0.0 | 0.00 | 0.00 | 0.00 | 66 | 1019.6 |
| 20260502061503 | 1 | 153 | 0.0 | 1.6 | 0.00 | 0.00 | 0.00 | 66 | 1019.6 |
| 20260502061004 | 1 | 312 | 0.0 | 1.6 | 0.00 | 0.00 | 0.00 | 66 | 1019.6 |
| 20260502055503 | 2 | 158 | 0.0 | 0.0 | 0.00 | 0.00 | 0.00 | 61 | 1019.3 |
| 20260502055003 | 2 | 162 | 0.0 | 1.6 | 0.00 | 0.00 | 0.00 | 61 | 1019.3 |
| 20260502054503 | 2 | 310 | 1.6 | 1.6 | 0.00 | 0.00 | 0.00 | 61 | 1019.3 |
| 20260502054003 | 2 | 211 | 0.0 | 1.6 | 0.00 | 0.00 | 0.00 | 61 | 1019.3 |
| 20260502053504 | 2 | 222 | 0.0 | 1.6 | 0.00 | 0.00 | 0.00 | 61 | 1019.3 |
| 20260502052504 | 2 | 188 | 0.0 | 1.6 | 0.00 | 0.00 | 0.00 | 61 | 1019.3 |
| 20260502052003 | 2 | 187 | 1.6 | 1.6 | 0.00 | 0.00 | 0.00 | 61 | 1019.3 |
| 20260502051003 | 2 | 307 | 1.6 | 1.6 | 0.00 | 0.00 | 0.00 | 61 | 1019.3 |
| 20260502050004 | 3 | 199 | 0.0 | 1.6 | 0.00 | 0.00 | 0.00 | 59 | 1019.3 |
| 20260502045503 | 3 | 182 | 0.0 | 1.6 | 0.00 | 0.00 | 0.00 | 59 | 1019.3 |
| 20260502045003 | 3 | 172 | 0.0 | 1.6 | 0.00 | 0.00 | 0.00 | 59 | 1019.3 |
| 20260502044504 | 3 | 185 | 1.6 | 1.6 | 0.00 | 0.00 | 0.00 | 59 | 1019.3 |
| 20260502044003 | 3 | 151 | 0.0 | 3.2 | 0.00 | 0.00 | 0.00 | 59 | 1019.3 |
| 20260502043503 | 3 | 313 | 3.2 | 3.2 | 0.00 | 0.00 | 0.00 | 59 | 1019.3 |
| 20260502043003 | 3 | 315 | 1.6 | 3.2 | 0.00 | 0.00 | 0.00 | 59 | 1019.3 |
| 20260502042003 | 3 | 197 | 0.0 | 1.6 | 0.00 | 0.00 | 0.00 | 59 | 1019.3 |
| 20260502041503 | 3 | 172 | 0.0 | 1.6 | 0.00 | 0.00 | 0.00 | 59 | 1019.3 |
| 20260502041004 | 3 | 190 | 0.0 | 1.6 | 0.00 | 0.00 | 0.00 | 59 | 1019.3 |
| 20260502040503 | 3 | 276 | 1.6 | 3.2 | 0.00 | 0.00 | 0.00 | 59 | 1019.3 |
| 20260502040003 | 5 | 316 | 3.2 | 3.2 | 0.00 | 0.00 | 0.00 | 54 | 1019.0 |
| 20260502035503 | 5 | 312 | 1.6 | 3.2 | 0.00 | 0.00 | 0.00 | 54 | 1019.0 |
| 20260502034503 | 5 | 318 | 1.6 | 3.2 | 0.00 | 0.00 | 0.00 | 54 | 1019.0 |
| 20260502034003 | 5 | 308 | 1.6 | 3.2 | 0.00 | 0.00 | 0.00 | 54 | 1019.0 |
| 20260502033503 | 5 | 270 | 3.2 | 3.2 | 0.00 | 0.00 | 0.00 | 54 | 1019.0 |
| 20260502032504 | 5 | 329 | 3.2 | 4.8 | 0.00 | 0.00 | 0.00 | 54 | 1019.0 |
| 20260502032004 | 5 | 317 | 3.2 | 4.8 | 0.00 | 0.00 | 0.00 | 54 | 1019.0 |
| 20260502031504 | 5 | 326 | 1.6 | 3.2 | 0.00 | 0.00 | 0.00 | 54 | 1019.0 |
| 20260502031004 | 5 | 323 | 1.6 | 3.2 | 0.00 | 0.00 | 0.00 | 54 | 1019.0 |
| 20260502030503 | 5 | 316 | 1.6 | 3.2 | 0.00 | 0.00 | 0.00 | 54 | 1019.0 |
| 20260502025503 | 5 | 193 | 0.0 | 1.6 | 0.00 | 0.00 | 0.00 | 52 | 1018.6 |
| 20260502025003 | 5 | 341 | 1.6 | 3.2 | 0.00 | 0.00 | 0.00 | 52 | 1018.6 |
| 20260502024504 | 5 | 326 | 3.2 | 4.8 | 0.00 | 0.00 | 0.00 | 52 | 1018.6 |
| 20260502024004 | 5 | 320 | 1.6 | 4.8 | 0.00 | 0.00 | 0.00 | 52 | 1018.6 |
| 20260502023503 | 5 | 321 | 3.2 | 4.8 | 0.00 | 0.00 | 0.00 | 52 | 1018.6 |
| 20260502022504 | 5 | 319 | 3.2 | 8.0 | 0.00 | 0.00 | 0.00 | 52 | 1018.6 |
| 20260502022004 | 5 | 320 | 4.8 | 4.8 | 0.00 | 0.00 | 0.00 | 52 | 1018.6 |
| 20260502021004 | 5 | 341 | 3.2 | 4.8 | 0.00 | 0.00 | 0.00 | 52 | 1018.6 |
| 20260502020504 | 5 | 324 | 3.2 | 4.8 | 0.00 | 0.00 | 0.00 | 52 | 1018.6 |
| 20260502020004 | 8 | 321 | 3.2 | 4.8 | 0.00 | 0.00 | 0.00 | 36 | 1017.9 |
| 20260502015504 | 8 | 325 | 3.2 | 4.8 | 0.00 | 0.00 | 0.00 | 36 | 1017.9 |
| 20260502015004 | 8 | 323 | 4.8 | 8.0 | 0.00 | 0.00 | 0.00 | 36 | 1017.9 |
| 20260502014004 | 8 | 318 | 3.2 | 8.0 | 0.00 | 0.00 | 0.00 | 36 | 1017.9 |
| 20260502013504 | 8 | 323 | 3.2 | 8.0 | 0.00 | 0.00 | 0.00 | 36 | 1017.9 |
| 20260502013005 | 8 | 330 | 3.2 | 4.8 | 0.00 | 0.00 | 0.00 | 36 | 1017.9 |
| 20260502012504 | 8 | 325 | 3.2 | 4.8 | 0.00 | 0.00 | 0.00 | 36 | 1017.9 |
| 20260502012005 | 8 | 328 | 4.8 | 9.7 | 0.00 | 0.00 | 0.00 | 36 | 1017.9 |
| 20260502011504 | 8 | 323 | 4.8 | 9.7 | 0.00 | 0.00 | 0.00 | 36 | 1017.9 |
| 20260502011004 | 8 | 335 | 3.2 | 9.7 | 0.00 | 0.00 | 0.00 | 36 | 1017.9 |
| 20260502010504 | 8 | 336 | 4.8 | 9.7 | 0.00 | 0.00 | 0.00 | 36 | 1017.9 |
| 20260502010004 | 10 | 322 | 4.8 | 9.7 | 0.00 | 0.00 | 0.00 | 34 | 1017.6 |
| 20260502005504 | 10 | 321 | 3.2 | 8.0 | 0.00 | 0.00 | 0.00 | 34 | 1017.6 |
| 20260502005005 | 10 | 334 | 3.2 | 4.8 | 0.00 | 0.00 | 0.00 | 34 | 1017.6 |
| 20260502004504 | 10 | 328 | 4.8 | 9.7 | 0.00 | 0.00 | 0.00 | 34 | 1017.6 |
| 20260502003504 | 10 | 334 | 6.4 | 9.7 | 0.00 | 0.00 | 0.00 | 34 | 1017.6 |
| 20260502003004 | 10 | 321 | 6.4 | 11.3 | 0.00 | 0.00 | 0.00 | 34 | 1017.6 |
| 20260502002504 | 10 | 330 | 8.0 | 12.9 | 0.00 | 0.00 | 0.00 | 34 | 1017.6 |
| 20260502000505 | 10 | 326 | 8.0 | 14.5 | 0.00 | 0.00 | 0.00 | 34 | 1017.6 |
| 20260502000004 | 10 | 323 | 4.8 | 9.7 | 0.00 | 0.00 | 0.00 | 34 | 1017.6 |
| 20260501235004 | 10 | 327 | 8.0 | 12.9 | 0.00 | 0.00 | 0.00 | 34 | 1017.6 |
| 20260501234004 | 10 | 328 | 9.7 | 14.5 | 0.00 | 0.00 | 0.00 | 34 | 1017.6 |
| 20260501233505 | 10 | 324 | 9.7 | 20.9 | 0.00 | 0.00 | 0.00 | 34 | 1017.6 |
| 20260501233004 | 10 | 332 | 8.0 | 12.9 | 0.00 | 0.00 | 0.00 | 34 | 1017.6 |
| 20260501232505 | 10 | 342 | 8.0 | 11.3 | 0.00 | 0.00 | 0.00 | 34 | 1017.6 |
| 20260501232004 | 10 | 353 | 8.0 | 12.9 | 0.00 | 0.00 | 0.00 | 34 | 1017.6 |
| 20260501231504 | 10 | 333 | 9.7 | 19.3 | 0.00 | 0.00 | 0.00 | 34 | 1017.6 |
| 20260501231005 | 10 | 332 | 11.3 | 16.1 | 0.00 | 0.00 | 0.00 | 34 | 1017.6 |
| 20260501230504 | 10 | 332 | 9.7 | 19.3 | 0.00 | 0.00 | 0.00 | 34 | 1017.6 |
| 20260501225504 | 11 | 328 | 8.0 | 11.3 | 0.00 | 0.00 | 0.00 | 31 | 1017.3 |
| 20260501225004 | 11 | 332 | 9.7 | 16.1 | 0.00 | 0.00 | 0.00 | 31 | 1017.3 |
| 20260501224505 | 11 | 321 | 9.7 | 16.1 | 0.00 | 0.00 | 0.00 | 31 | 1017.3 |
| 20260501224004 | 11 | 350 | 4.8 | 12.9 | 0.00 | 0.00 | 0.00 | 31 | 1017.3 |
| 20260501223505 | 11 | 336 | 9.7 | 16.1 | 0.00 | 0.00 | 0.00 | 31 | 1017.3 |
| 20260501222505 | 11 | 341 | 6.4 | 9.7 | 0.00 | 0.00 | 0.00 | 31 | 1017.3 |
| 20260501222004 | 11 | 326 | 9.7 | 16.1 | 0.00 | 0.00 | 0.00 | 31 | 1017.3 |
| 20260501221505 | 11 | 334 | 11.3 | 20.9 | 0.00 | 0.00 | 0.00 | 31 | 1017.3 |
| 20260501221005 | 11 | 324 | 9.7 | 20.9 | 0.00 | 0.00 | 0.00 | 31 | 1017.3 |
| 20260501220505 | 11 | 331 | 9.7 | 24.1 | 0.00 | 0.00 | 0.00 | 31 | 1017.3 |
| 20260501220004 | 11 | 331 | 9.7 | 19.3 | 0.00 | 0.00 | 0.00 | 31 | 1017.3 |
| 20260501215004 | 11 | 319 | 6.4 | 16.1 | 0.00 | 0.00 | 0.00 | 31 | 1017.3 |
| 20260501214505 | 11 | 331 | 8.0 | 16.1 | 0.00 | 0.00 | 0.00 | 31 | 1017.3 |
| 20260501214004 | 11 | 312 | 8.0 | 14.5 | 0.00 | 0.00 | 0.00 | 31 | 1017.3 |
| 20260501213505 | 11 | 7 | 3.2 | 14.5 | 0.00 | 0.00 | 0.00 | 31 | 1017.3 |
| 20260501213004 | 11 | 349 | 4.8 | 9.7 | 0.00 | 0.00 | 0.00 | 31 | 1017.3 |
| 20260501212505 | 11 | 342 | 9.7 | 14.5 | 0.00 | 0.00 | 0.00 | 31 | 1017.3 |
| 20260501212005 | 11 | 8 | 8.0 | 14.5 | 0.00 | 0.00 | 0.00 | 31 | 1017.3 |
| 20260501211005 | 11 | 6 | 3.2 | 11.3 | 0.00 | 0.00 | 0.00 | 31 | 1017.3 |
| 20260501210505 | 11 | 9 | 9.7 | 20.9 | 0.00 | 0.00 | 0.00 | 31 | 1017.3 |
| 20260501205505 | 11 | 333 | 6.4 | 14.5 | 0.00 | 0.00 | 0.00 | 33 | 1017.6 |
| 20260501204003 | 11 | 67 | 4.8 | 11.3 | 0.00 | 0.00 | 0.00 | 33 | 1017.6 |
| 20260501203503 | 11 | 37 | 3.2 | 12.9 | 0.00 | 0.00 | 0.00 | 33 | 1017.6 |
| 20260501202503 | 11 | 0 | 6.4 | 12.9 | 0.00 | 0.00 | 0.00 | 33 | 1017.6 |
| 20260501202003 | 11 | 317 | 8.0 | 14.5 | 0.00 | 0.00 | 0.00 | 33 | 1017.6 |
| 20260501201503 | 11 | 345 | 6.4 | 11.3 | 0.00 | 0.00 | 0.00 | 33 | 1017.6 |
| 20260501200503 | 11 | 4 | 6.4 | 12.9 | 0.00 | 0.00 | 0.00 | 33 | 1017.6 |
| 20260501200004 | 10 | 85 | 3.2 | 9.7 | 0.00 | 0.00 | 0.00 | 35 | 1017.3 |
| 20260501195503 | 10 | 327 | 8.0 | 12.9 | 0.00 | 0.00 | 0.00 | 35 | 1017.3 |
| 20260501195003 | 10 | 1 | 8.0 | 12.9 | 0.00 | 0.00 | 0.00 | 35 | 1017.3 |
| 20260501194004 | 10 | 332 | 9.7 | 20.9 | 0.00 | 0.00 | 0.00 | 35 | 1017.3 |
| 20260501193503 | 10 | 353 | 8.0 | 24.1 | 0.00 | 0.00 | 0.00 | 35 | 1017.3 |
| 20260501193003 | 10 | 329 | 11.3 | 25.7 | 0.00 | 0.00 | 0.00 | 35 | 1017.3 |
| 20260501192503 | 10 | 334 | 8.0 | 14.5 | 0.00 | 0.00 | 0.00 | 35 | 1017.3 |
| 20260501192004 | 10 | 106 | 8.0 | 14.5 | 0.00 | 0.00 | 0.00 | 35 | 1017.3 |
| 20260501191503 | 10 | 330 | 8.0 | 14.5 | 0.00 | 0.00 | 0.00 | 35 | 1017.3 |
| 20260501191003 | 10 | 337 | 8.0 | 16.1 | 0.00 | 0.00 | 0.00 | 35 | 1017.3 |